Weather History for Concordia, KS

Change the Weather History Date:

Sunday, May 5, 2013

  Actual Average Record
Temperature  
Mean Temperature 53 °F 60 °F  
Max Temperature 64 °F 71 °F 97 °F (1909)
Min Temperature 42 °F 48 °F 32 °F (1917)
Degree Days  
Heating Degree Days 12 7  
Month to date heating degree days 93 36  
Since 1 July heating degree days 5440 5300  
Cooling Degree Days 0 1  
Month to date cooling degree days 0 5  
Year to date cooling degree days 10 22  
Growing Degree Days 3 (Base 50)    
Moisture  
Dew Point 41 °F    
Average Humidity 71    
Maximum Humidity 89    
Minimum Humidity 52    
Precipitation  
Precipitation 0.00 in 0.12 in 2.14 in (2007)
Month to date precipitation 1.66 0.56  
Year to date precipitation 7.51 6.39  
Snow  
Snow 0.00 in 0.00 in T in (1953)
Month to date snowfall T 0.0  
Year to date snowfall 20.3 13.7  
Since 1 July snowfall 28.8 20.2  
Snow Depth 0.00 in    
Sea Level Pressure  
Sea Level Pressure 30.15 in    
Wind  
Wind Speed 8 mph (North)    
Max Wind Speed 15 mph    
Max Gust Speed 18 mph    
Visibility 10 miles    
Events      
T = Trace of Precipitation, MM = Missing Value Source: NWS Daily Summary

Daily Weather History Graph

Daily Weather History Graph

Search for Another Location

Airport:

Trip Planner

Search our weather history database for the weather conditions in past years. The results will help you decide how hot, cold, wet, or windy it might be!

Date:

Astronomy

May. 05, 2013 Rise Set
Actual Time 6:26 AM CDT 8:28 PM CDT
Civil Twilight 5:57 AM CDT 8:58 PM CDT
Nautical Twilight 5:21 AM CDT 9:34 PM CDT
Astronomical Twilight 4:42 AM CDT 10:13 PM CDT
Moon 3:56 AM CDT (5/5) 4:30 PM CDT (5/5)
Length of Visible Light 15h 01m
Length of Day
14h 02m
Waning Crescent, 18% of the Moon is Illuminated
May 5
Waning Crescent
May 9
New
May 17
First Quarter
May 24
Full
May 31
Last Quarter

Hourly Weather History & Observations

Time (CDT) Temp. Windchill Dew Point Humidity Pressure Visibility Wind Dir Wind Speed Gust Speed Precip Events Conditions
12:50 AM 42.8 °F 36.6 °F 37.4 °F 81% 30.15 in 10.0 mi North 11.5 mph - N/A   Overcast
12:55 AM 42.1 °F 35.7 °F 37.9 °F 85% 30.17 in 10.0 mi North 11.5 mph - N/A   Overcast
1:55 AM 42.1 °F 36.1 °F 37.9 °F 85% 30.16 in 10.0 mi North 10.4 mph - N/A   Overcast
2:55 AM 42.1 °F 36.6 °F 37.9 °F 85% 30.15 in 10.0 mi North 9.2 mph - N/A   Overcast
3:13 AM 42.8 °F 37.0 °F 37.4 °F 81% 30.13 in 10.0 mi North 10.4 mph - N/A   Overcast
3:55 AM 42.1 °F 36.6 °F 37.9 °F 85% 30.16 in 10.0 mi North 9.2 mph - N/A   Overcast
4:55 AM 42.1 °F 35.7 °F 37.9 °F 85% 30.17 in 10.0 mi NNW 11.5 mph - N/A   Overcast
5:55 AM 42.1 °F 36.1 °F 37.9 °F 85% 30.17 in 10.0 mi NNW 10.4 mph - N/A   Overcast
6:38 AM 42.8 °F 36.2 °F 39.2 °F 87% 30.16 in 8.0 mi North 12.7 mph - N/A   Overcast
6:55 AM 42.1 °F 36.1 °F 39.0 °F 89% 30.18 in 7.0 mi NNW 10.4 mph - N/A   Overcast
7:27 AM 42.8 °F 36.2 °F 37.4 °F 81% 30.16 in 10.0 mi NNW 12.7 mph - N/A   Overcast
7:55 AM 43.0 °F 37.7 °F 37.9 °F 82% 30.19 in 10.0 mi NNW 9.2 mph - N/A   Overcast
8:55 AM 44.1 °F 37.7 °F 37.9 °F 79% 30.21 in 10.0 mi North 12.7 mph - N/A   Overcast
9:55 AM 45.0 °F 39.3 °F 39.0 °F 80% 30.21 in 10.0 mi North 11.5 mph - N/A   Overcast
10:55 AM 48.0 °F - 39.9 °F 74% 30.19 in 10.0 mi North 9.2 mph - N/A   Overcast
11:55 AM 51.1 °F - 41.0 °F 68% 30.20 in 10.0 mi NNW 11.5 mph - N/A   Overcast
12:55 PM 53.6 °F - 42.8 °F 67% 30.17 in 10.0 mi NNW 12.7 mph - N/A   Overcast
1:55 PM 57.9 °F - 44.1 °F 60% 30.16 in 10.0 mi North 9.2 mph - N/A   Overcast
2:55 PM 61.0 °F - 45.0 °F 56% 30.13 in 10.0 mi North 9.2 mph - N/A   Mostly Cloudy
3:55 PM 63.0 °F - 46.0 °F 54% 30.11 in 10.0 mi North 8.1 mph - N/A   Overcast
4:55 PM 64.0 °F - 46.0 °F 52% 30.09 in 10.0 mi North 8.1 mph - N/A   Overcast
5:55 PM 63.0 °F - 46.0 °F 54% 30.09 in 10.0 mi NNE 6.9 mph - N/A   Overcast
6:55 PM 60.1 °F - 46.0 °F 60% 30.09 in 10.0 mi NE 8.1 mph - N/A   Overcast
7:55 PM 57.0 °F - 46.0 °F 67% 30.10 in 10.0 mi ENE 3.5 mph - N/A   Clear
8:55 PM 52.0 °F - 45.0 °F 77% 30.12 in 10.0 mi East 3.5 mph - N/A   Clear
9:55 PM 50.0 °F - 44.1 °F 80% 30.13 in 10.0 mi East 4.6 mph - N/A   Clear
10:55 PM 46.9 °F - 43.0 °F 86% 30.15 in 10.0 mi ESE 3.5 mph - N/A   Clear
11:55 PM 48.9 °F - 44.1 °F 83% 30.15 in 10.0 mi Calm Calm - N/A   Mostly Cloudy